contact: severine.martini@mio.osupytheas.fr, dominique.lefevre@mio.osupytheas.fr
Project:EMSO Ligure-ouest http://www.emso-fr.org/EMSO-France
Sensor Aquadopp, Serial 05974 
DOI : "https://doi.org/10.17882/97948" 
Title:EMSO Western Ligurian : Data Bathybot Aquadopp sensor - deploiement 2023-04-28
Datetime,Profondeur,Latitude,Longitude,X_East,Y_North,Z_up,Amplitude_X,Amplitude_Y,Amplitude_Z,Batterie,Sound_Speed,Heading,Pitch,Roll,Pressure,Temperature,Fluorescence,Speed,Direction
time,m,degree_north,degree_east,m.s-1,m.s-1,m.s-1,1,1,1,Volt,m.s-1,degree,degree,degree,dbar,degree_C,arbitrary units (a.u.),m.s-1,degree
2023-11-21T08:33:13,2420,42.8014,5.9826,1.1,0.035,3.252,155.0,152.0,153.0,11.7,1504.7,271.4,-0.8,0.9,2485.637,13.28,752.0,1.1,88.2
2023-11-21T08:36:13,2420,42.8014,5.9826,0.627,0.034,2.799,156.0,152.0,153.0,11.7,1504.7,271.4,-0.8,0.9,2485.414,13.28,753.0,0.628,86.9
2023-11-21T08:39:13,2420,42.8014,5.9826,0.831,0.027,3.48,156.0,152.0,153.0,11.7,1504.7,271.5,-0.8,0.9,2485.107,13.28,746.0,0.831,88.1
2023-11-21T08:42:14,2420,42.8014,5.9826,1.308,0.001,3.025,155.0,152.0,153.0,11.7,1504.7,271.4,-0.8,0.9,2485.914,13.28,758.0,1.308,90.0
2023-11-21T08:45:13,2420,42.8014,5.9826,0.789,0.031,3.531,156.0,152.0,153.0,11.7,1504.7,271.4,-0.8,0.9,2485.528,13.28,766.0,0.79,87.8
2023-11-21T08:48:13,2420,42.8014,5.9826,0.489,0.284,3.401,156.0,152.0,153.0,11.7,1504.7,271.4,-0.8,0.9,2485.203,13.28,755.0,0.565,59.9
2023-11-21T08:51:13,2420,42.8014,5.9826,0.489,0.026,3.79,155.0,152.0,153.0,11.7,1504.7,271.4,-0.8,0.9,2485.241,13.28,745.0,0.49,87.0
2023-11-21T08:54:13,2420,42.8014,5.9826,0.648,0.041,3.651,156.0,152.0,153.0,11.7,1504.7,271.6,-0.8,0.9,2485.221,13.28,768.0,0.649,86.4
2023-11-21T08:57:13,2420,42.8014,5.9826,0.746,0.028,3.583,156.0,152.0,153.0,11.7,1504.7,271.6,-0.8,0.9,2485.587,13.28,765.0,0.747,87.9
2023-11-21T09:03:13,2420,42.8014,5.9826,0.71,0.035,3.625,156.0,152.0,153.0,11.7,1504.7,271.4,-0.8,0.9,2485.506,13.28,755.0,0.711,87.2
2023-11-21T09:06:13,2420,42.8014,5.9826,0.86,0.041,3.45,156.0,152.0,153.0,11.7,1504.7,271.4,-0.8,0.9,2485.745,13.28,777.0,0.861,87.3
2023-11-21T09:09:13,2420,42.8014,5.9826,0.841,0.043,3.504,156.0,152.0,153.0,11.7,1504.7,271.5,-0.8,0.9,2485.633,13.28,771.0,0.842,87.1
2023-11-21T09:12:13,2420,42.8014,5.9826,0.681,0.311,3.162,156.0,152.0,153.0,11.7,1504.7,271.4,-0.8,0.9,2485.468,13.28,754.0,0.749,65.5
2023-11-21T09:15:13,2420,42.8014,5.9826,0.641,0.044,3.664,155.0,152.0,153.0,11.7,1504.7,271.5,-0.8,0.8,2485.02,13.28,764.0,0.642,86.1
2023-11-21T09:18:13,2420,42.8014,5.9826,0.755,0.024,3.557,155.0,152.0,153.0,11.7,1504.7,271.6,-0.8,0.9,2485.171,13.28,752.0,0.755,88.2
2023-11-21T09:21:14,2420,42.8014,5.9826,0.488,-0.207,3.416,156.0,152.0,153.0,11.7,1504.7,271.5,-0.8,0.9,2485.05,13.28,757.0,0.53,113.0
2023-11-21T09:24:13,2420,42.8014,5.9826,0.715,0.036,3.627,155.0,152.0,153.0,11.7,1504.7,271.5,-0.8,0.9,2485.239,13.28,768.0,0.716,87.1
2023-11-21T09:27:13,2420,42.8014,5.9826,0.586,0.048,3.744,155.0,152.0,153.0,11.7,1504.7,271.5,-0.8,0.9,2485.185,13.28,762.0,0.588,85.3
2023-11-21T09:30:13,2420,42.8014,5.9826,0.513,0.299,3.39,155.0,152.0,153.0,11.7,1504.7,271.4,-0.8,0.9,2485.544,13.28,763.0,0.594,59.8
2023-11-21T09:33:13,2420,42.8014,5.9826,0.476,0.288,3.439,156.0,152.0,153.0,11.7,1504.7,271.6,-0.8,0.9,2485.04,13.28,764.0,0.556,58.8
2023-11-21T09:36:13,2420,42.8014,5.9826,0.896,0.031,3.427,156.0,152.0,153.0,11.7,1504.7,271.5,-0.8,0.9,2484.834,13.28,769.0,0.897,88.0
2023-11-21T09:39:13,2420,42.8014,5.9826,0.768,0.032,3.545,155.0,152.0,153.0,11.7,1504.7,271.4,-0.8,0.9,2485.193,13.28,749.0,0.769,87.6
2023-11-21T09:42:13,2420,42.8014,5.9826,0.548,0.299,3.323,156.0,152.0,153.0,11.7,1504.7,271.4,-0.8,0.9,2485.532,13.28,730.0,0.624,61.4
2023-11-21T09:45:13,2420,42.8014,5.9826,0.956,0.049,3.373,156.0,152.0,153.0,11.7,1504.7,271.0,-0.8,0.9,2485.488,13.28,767.0,0.957,87.1
2023-11-21T09:48:13,2420,42.8014,5.9826,0.719,0.044,3.634,155.0,152.0,153.0,11.7,1504.7,271.0,-0.8,0.9,2485.006,13.28,776.0,0.72,86.5
2023-11-21T09:51:13,2420,42.8014,5.9826,0.641,0.28,3.266,155.0,152.0,153.0,11.7,1504.7,271.0,-0.9,0.9,2485.221,13.28,758.0,0.699,66.4
2023-11-21T09:54:13,2420,42.8014,5.9826,0.467,-0.212,3.412,156.0,152.0,153.0,11.7,1504.7,271.0,-0.8,0.9,2485.482,13.28,767.0,0.513,114.4
2023-11-21T09:57:13,2420,42.8014,5.9826,0.663,0.29,3.277,156.0,152.0,153.0,11.7,1504.7,271.0,-0.8,0.9,2485.382,13.28,755.0,0.724,66.4
2023-11-21T10:03:13,2420,42.8014,5.9826,0.869,0.037,3.443,156.0,152.0,153.0,11.7,1504.7,271.2,-0.8,0.9,2485.552,13.28,755.0,0.87,87.6
2023-11-21T10:06:13,2420,42.8014,5.9826,0.84,0.059,3.524,156.0,152.0,153.0,11.7,1504.7,271.2,-0.9,0.9,2485.091,13.28,766.0,0.842,86.0
2023-11-21T10:09:13,2420,42.8014,5.9826,0.925,0.019,3.394,156.0,152.0,153.0,11.7,1504.7,271.0,-0.8,0.9,2485.255,13.28,773.0,0.925,88.8
2023-11-21T10:12:13,2420,42.8014,5.9826,0.685,-0.203,3.26,156.0,152.0,153.0,11.7,1504.7,271.0,-0.8,0.9,2485.404,13.28,755.0,0.714,106.5
2023-11-21T10:15:13,2420,42.8014,5.9826,1.006,0.027,3.313,155.0,152.0,153.0,11.7,1504.7,271.2,-0.8,0.9,2485.661,13.28,1217.0,1.006,88.5
2023-11-21T10:18:13,2420,42.8014,5.9826,0.988,0.042,3.334,156.0,152.0,153.0,11.7,1504.7,271.0,-0.8,0.9,2484.982,13.28,761.0,0.989,87.6
2023-11-21T10:21:13,2420,42.8014,5.9826,0.858,-0.218,3.056,156.0,152.0,153.0,11.7,1504.7,271.0,-0.8,0.9,2485.267,13.28,769.0,0.885,104.3
2023-11-21T10:24:13,2420,42.8014,5.9826,0.745,0.045,3.568,156.0,152.0,153.0,11.7,1504.7,271.0,-0.8,0.9,2485.534,13.28,743.0,0.746,86.5
2023-11-21T10:27:13,2420,42.8014,5.9826,0.437,0.067,3.843,156.0,152.0,153.0,11.7,1504.7,271.3,-0.8,0.9,2485.215,13.28,765.0,0.442,81.3
2023-11-21T10:30:13,2420,42.8014,5.9826,0.535,0.04,3.774,155.0,151.0,152.0,11.8,1504.7,271.8,-0.8,0.9,2485.564,13.28,762.0,0.536,85.7
2023-11-21T10:33:13,2420,42.8014,5.9826,0.427,0.041,3.871,155.0,151.0,152.0,11.7,1504.7,271.9,-0.8,0.9,2485.88,13.28,762.0,0.429,84.5
2023-11-21T10:36:13,2420,42.8014,5.9826,0.487,0.064,3.838,155.0,151.0,152.0,11.8,1504.7,271.9,-0.8,0.9,2485.685,13.28,775.0,0.491,82.5
2023-11-21T10:39:13,2420,42.8014,5.9826,0.371,0.052,3.916,155.0,151.0,152.0,11.8,1504.7,272.0,-0.8,0.9,2485.677,13.28,771.0,0.375,82.0
2023-11-21T10:42:13,2420,42.8014,5.9826,0.445,0.054,3.86,155.0,152.0,152.0,11.8,1504.7,271.8,-0.8,0.8,2485.472,13.28,776.0,0.448,83.1
2023-11-21T10:45:14,2420,42.8014,5.9826,0.348,0.063,3.951,155.0,152.0,152.0,11.8,1504.7,271.8,-0.8,0.9,2485.32,13.28,780.0,0.354,79.7
2023-11-21T10:48:13,2420,42.8014,5.9826,0.423,0.044,3.906,155.0,152.0,152.0,11.8,1504.7,271.8,-0.9,0.9,2485.741,13.28,769.0,0.425,84.1
2023-11-21T10:51:13,2420,42.8014,5.9826,0.423,0.061,3.941,155.0,152.0,152.0,11.8,1504.7,271.8,-0.8,0.9,2485.755,13.28,761.0,0.427,81.8
2023-11-21T10:54:13,2420,42.8014,5.9826,0.435,0.048,3.898,155.0,151.0,152.0,11.8,1504.7,271.9,-0.8,0.9,2485.289,13.28,785.0,0.438,83.7
2023-11-21T10:57:13,2420,42.8014,5.9826,0.486,0.054,3.855,155.0,151.0,152.0,11.8,1504.7,271.8,-0.8,0.9,2485.428,13.28,773.0,0.489,83.7
2023-11-21T11:03:13,2420,42.8014,5.9826,0.594,0.064,3.692,155.0,151.0,152.0,11.8,1504.7,271.8,-0.8,0.9,2485.653,13.28,773.0,0.597,83.9
2023-11-21T11:06:13,2420,42.8014,5.9826,0.297,0.058,4.04,155.0,151.0,152.0,11.8,1504.7,271.9,-0.8,0.9,2485.831,13.28,772.0,0.303,78.9
2023-11-21T11:09:13,2420,42.8014,5.9826,0.398,0.044,3.922,155.0,151.0,152.0,11.8,1504.7,271.9,-0.8,0.9,2485.868,13.28,771.0,0.4,83.7
2023-11-21T11:12:13,2420,42.8014,5.9826,0.599,0.058,3.684,155.0,151.0,152.0,11.7,1504.7,271.9,-0.8,0.9,2486.125,13.28,766.0,0.602,84.5
2023-11-21T11:15:13,2420,42.8014,5.9826,0.135,0.289,3.701,155.0,151.0,152.0,11.8,1504.7,271.9,-0.8,0.9,2485.603,13.28,786.0,0.319,25.0
2023-11-21T11:18:13,2420,42.8014,5.9826,0.404,0.049,3.929,155.0,151.0,152.0,11.8,1504.7,271.8,-0.8,0.9,2485.942,13.28,759.0,0.407,83.1
2023-11-21T11:21:14,2420,42.8014,5.9826,0.386,0.109,3.82,155.0,151.0,152.0,11.8,1504.7,271.8,-0.8,0.9,2485.888,13.28,779.0,0.401,74.2
2023-11-21T11:24:13,2420,42.8014,5.9826,0.538,0.053,3.725,155.0,151.0,152.0,11.8,1504.7,271.8,-0.9,0.9,2485.273,13.28,787.0,0.541,84.4
2023-11-21T11:27:13,2420,42.8014,5.9826,0.472,0.069,3.815,154.0,152.0,152.0,11.8,1504.7,271.8,-0.8,0.9,2485.48,13.28,772.0,0.477,81.7
2023-11-21T11:30:13,2420,42.8014,5.9826,0.381,0.06,3.91,155.0,152.0,152.0,11.8,1504.7,271.8,-0.8,0.9,2485.661,13.28,776.0,0.386,81.1
2023-11-21T11:33:13,2420,42.8014,5.9826,0.276,0.056,4.041,155.0,152.0,152.0,11.8,1504.7,271.9,-0.8,0.9,2485.703,13.28,777.0,0.282,78.5
2023-11-21T11:36:13,2420,42.8014,5.9826,0.498,0.021,3.754,155.0,151.0,152.0,11.8,1504.7,271.9,-0.8,0.9,2485.524,13.28,773.0,0.498,87.6
2023-11-21T11:39:13,2420,42.8014,5.9826,0.68,0.044,3.622,155.0,152.0,152.0,11.8,1504.7,272.0,-0.8,0.9,2485.56,13.28,762.0,0.681,86.3
2023-11-21T11:42:13,2420,42.8014,5.9826,0.407,0.056,3.854,155.0,152.0,152.0,11.8,1504.7,271.8,-0.8,0.9,2485.482,13.28,767.0,0.411,82.2
2023-11-21T11:45:13,2420,42.8014,5.9826,0.556,0.036,3.726,155.0,151.0,152.0,11.8,1504.7,272.0,-0.8,0.9,2485.424,13.28,774.0,0.557,86.3
2023-11-21T11:48:14,2420,42.8014,5.9826,0.623,0.047,3.634,155.0,151.0,152.0,11.7,1504.7,271.9,-0.9,0.9,2485.43,13.28,767.0,0.625,85.7
2023-11-21T11:51:14,2420,42.8014,5.9826,0.395,0.069,3.907,155.0,151.0,152.0,11.8,1504.7,272.0,-0.8,0.9,2485.458,13.28,768.0,0.401,80.1
2023-11-21T11:54:13,2420,42.8014,5.9826,0.492,0.056,3.772,155.0,151.0,152.0,11.8,1504.7,272.0,-0.8,0.9,2485.613,13.28,771.0,0.495,83.5
2023-11-21T11:57:13,2420,42.8014,5.9826,0.379,0.055,3.923,155.0,151.0,152.0,11.8,1504.7,271.8,-0.9,0.9,2485.827,13.28,757.0,0.383,81.7
2023-11-21T12:03:13,2420,42.8014,5.9826,0.391,0.071,3.873,155.0,151.0,152.0,11.8,1504.7,271.9,-0.9,0.9,2485.422,13.28,775.0,0.397,79.7
2023-11-21T12:06:13,2420,42.8014,5.9826,0.396,0.06,3.893,155.0,151.0,152.0,11.8,1504.7,272.0,-0.8,0.9,2485.884,13.28,772.0,0.401,81.4
2023-11-21T12:09:13,2420,42.8014,5.9826,0.432,0.05,3.842,155.0,152.0,152.0,11.7,1504.7,271.9,-0.8,0.9,2485.53,13.28,766.0,0.435,83.4
2023-11-21T12:12:13,2420,42.8014,5.9826,0.404,0.06,3.844,155.0,152.0,152.0,11.8,1504.7,271.8,-0.8,0.9,2485.827,13.28,767.0,0.408,81.6
2023-11-21T12:15:13,2420,42.8014,5.9826,0.375,0.044,3.943,155.0,151.0,152.0,11.8,1504.7,272.0,-0.8,0.9,2486.0,13.28,763.0,0.378,83.3
2023-11-21T12:18:13,2420,42.8014,5.9826,0.716,0.005,3.579,155.0,151.0,152.0,11.8,1504.7,272.0,-0.8,0.9,2485.833,13.28,773.0,0.716,89.6
2023-11-21T12:21:13,2420,42.8014,5.9826,0.602,0.059,3.644,155.0,152.0,152.0,11.8,1504.7,271.9,-0.9,0.8,2485.398,13.28,771.0,0.605,84.4
2023-11-21T12:24:14,2420,42.8014,5.9826,0.56,0.029,3.758,155.0,152.0,152.0,11.8,1504.7,271.9,-0.8,0.8,2485.753,13.28,758.0,0.561,87.0
2023-11-21T12:27:14,2420,42.8014,5.9826,0.531,0.034,3.777,155.0,151.0,152.0,11.8,1504.7,272.0,-0.8,0.9,2485.675,13.28,787.0,0.532,86.3
2023-11-21T12:30:13,2420,42.8014,5.9826,0.277,0.047,4.018,155.0,151.0,152.0,11.8,1504.7,272.0,-0.8,0.9,2485.548,13.28,772.0,0.281,80.4
2023-11-21T12:33:13,2420,42.8014,5.9826,0.367,0.034,3.878,155.0,151.0,152.0,11.8,1504.7,272.0,-0.8,0.9,2485.737,13.28,769.0,0.369,84.7
2023-11-21T12:36:13,2420,42.8014,5.9826,0.44,0.036,3.853,155.0,151.0,152.0,11.8,1504.7,272.0,-0.8,0.9,2485.725,13.28,772.0,0.441,85.3
2023-11-21T12:39:13,2420,42.8014,5.9826,0.331,0.048,3.941,155.0,151.0,152.0,11.8,1504.7,271.8,-0.8,0.9,2485.932,13.28,781.0,0.334,81.7
2023-11-21T12:42:13,2420,42.8014,5.9826,0.427,0.047,3.892,155.0,151.0,152.0,11.8,1504.7,272.0,-0.9,0.9,2485.153,13.28,761.0,0.43,83.7
2023-11-21T12:45:13,2420,42.8014,5.9826,0.514,0.068,3.806,155.0,151.0,152.0,11.8,1504.7,272.0,-0.8,0.9,2485.777,13.28,774.0,0.518,82.5
2023-11-21T12:48:13,2420,42.8014,5.9826,0.517,0.07,3.69,155.0,151.0,152.0,11.8,1504.7,271.9,-0.8,0.9,2485.827,13.28,779.0,0.522,82.3
2023-11-21T12:51:14,2420,42.8014,5.9826,0.598,0.036,3.666,155.0,151.0,152.0,11.8,1504.7,272.0,-0.8,0.9,2485.657,13.28,779.0,0.599,86.6
2023-11-21T12:54:14,2420,42.8014,5.9826,0.723,0.035,3.553,155.0,151.0,152.0,11.8,1504.7,271.8,-0.8,0.9,2485.884,13.28,762.0,0.724,87.2
2023-11-21T12:57:13,2420,42.8014,5.9826,0.433,0.033,3.924,155.0,151.0,152.0,11.8,1504.7,271.9,-0.8,0.9,2485.673,13.28,753.0,0.434,85.6
2023-11-21T13:03:14,2420,42.8014,5.9826,0.327,0.065,3.9,155.0,151.0,152.0,11.8,1504.7,271.9,-0.8,0.9,2485.972,13.28,772.0,0.333,78.8
2023-11-21T13:06:14,2420,42.8014,5.9826,0.322,0.054,3.945,155.0,151.0,152.0,11.8,1504.7,271.9,-0.8,0.8,2485.92,13.28,781.0,0.326,80.5
2023-11-21T13:09:13,2420,42.8014,5.9826,0.424,0.069,3.878,155.0,151.0,152.0,11.8,1504.7,271.9,-0.8,0.9,2485.649,13.28,773.0,0.43,80.8
2023-11-21T13:12:13,2420,42.8014,5.9826,0.575,0.042,3.726,155.0,151.0,152.0,11.8,1504.7,271.9,-0.8,0.9,2485.811,13.28,771.0,0.576,85.8
2023-11-21T13:15:13,2420,42.8014,5.9826,0.471,0.065,3.839,155.0,152.0,152.0,11.8,1504.7,272.0,-0.8,0.9,2485.817,13.28,773.0,0.475,82.1
2023-11-21T13:18:13,2420,42.8014,5.9826,0.451,0.043,3.816,155.0,151.0,152.0,11.7,1504.7,271.9,-0.8,0.9,2485.273,13.28,776.0,0.453,84.6
2023-11-21T13:21:13,2420,42.8014,5.9826,0.501,0.041,3.831,155.0,151.0,152.0,11.8,1504.7,272.1,-0.8,0.9,2485.625,13.28,780.0,0.503,85.3
2023-11-21T13:24:13,2420,42.8014,5.9826,0.385,0.055,3.896,155.0,151.0,152.0,11.7,1504.7,271.9,-0.8,0.8,2485.309,13.28,781.0,0.389,81.9
2023-11-21T13:27:13,2420,42.8014,5.9826,0.504,0.055,3.812,155.0,151.0,152.0,11.8,1504.7,271.9,-0.9,0.9,2485.502,13.28,759.0,0.507,83.8
2023-11-21T13:30:14,2420,42.8014,5.9826,0.381,-0.193,3.495,155.0,151.0,152.0,11.8,1504.7,271.9,-0.9,0.9,2485.741,13.28,768.0,0.427,116.9
2023-11-21T13:33:13,2420,42.8014,5.9826,0.576,0.038,3.715,155.0,151.0,152.0,11.8,1504.7,271.9,-0.8,0.9,2485.819,13.28,778.0,0.577,86.2
2023-11-21T13:36:13,2420,42.8014,5.9826,0.552,0.034,3.722,155.0,151.0,152.0,11.8,1504.7,272.0,-0.8,0.9,2485.35,13.28,768.0,0.553,86.5
2023-11-21T13:39:13,2420,42.8014,5.9826,0.473,0.045,3.833,155.0,152.0,152.0,11.8,1504.7,272.0,-0.8,0.9,2485.362,13.28,764.0,0.475,84.6
2023-11-21T13:42:13,2420,42.8014,5.9826,0.421,0.052,3.891,155.0,152.0,152.0,11.8,1504.7,271.9,-0.8,0.9,2485.679,13.28,788.0,0.424,83.0
2023-11-21T13:45:13,2420,42.8014,5.9826,0.629,0.025,3.67,155.0,151.0,152.0,11.8,1504.7,272.0,-0.8,0.9,2485.747,13.28,776.0,0.629,87.7
2023-11-21T13:48:13,2420,42.8014,5.9826,0.576,0.047,3.753,155.0,151.0,152.0,11.8,1504.7,271.8,-0.8,0.9,2485.908,13.28,778.0,0.578,85.3
2023-11-21T13:51:14,2420,42.8014,5.9826,0.497,0.051,3.78,155.0,152.0,152.0,11.8,1504.7,272.0,-0.8,0.9,2485.685,13.28,773.0,0.5,84.1
2023-11-21T13:54:14,2420,42.8014,5.9826,0.505,0.028,3.786,155.0,151.0,152.0,11.8,1504.7,272.0,-0.8,0.9,2485.755,13.28,771.0,0.506,86.8
2023-11-21T13:57:13,2420,42.8014,5.9826,0.572,0.063,3.717,155.0,151.0,152.0,11.8,1504.7,271.8,-0.8,0.9,2485.332,13.28,1027.0,0.575,83.7
2023-11-21T14:03:14,2420,42.8014,5.9826,0.522,0.045,3.801,155.0,152.0,152.0,11.8,1504.7,272.0,-0.8,0.9,2485.562,13.28,763.0,0.524,85.1
2023-11-21T14:06:13,2420,42.8014,5.9826,0.566,0.031,3.778,155.0,151.0,152.0,11.8,1504.7,272.0,-0.9,0.9,2485.452,13.28,758.0,0.567,86.9
2023-11-21T14:09:13,2420,42.8014,5.9826,0.477,0.053,3.851,155.0,151.0,152.0,11.8,1504.7,271.8,-0.8,0.9,2485.777,13.28,777.0,0.48,83.7
2023-11-21T14:12:14,2420,42.8014,5.9826,0.546,0.039,3.765,155.0,151.0,152.0,11.8,1504.7,271.9,-0.8,0.9,2485.583,13.28,772.0,0.547,85.9
2023-11-21T14:15:13,2420,42.8014,5.9826,0.469,0.036,3.842,155.0,151.0,152.0,11.8,1504.7,272.0,-0.8,0.9,2485.558,13.28,771.0,0.47,85.6
2023-11-21T14:18:13,2420,42.8014,5.9826,0.562,0.064,3.79,155.0,151.0,152.0,11.7,1504.7,271.9,-0.8,0.9,2485.673,13.28,774.0,0.566,83.5
2023-11-21T14:21:13,2420,42.8014,5.9826,0.425,0.055,3.913,155.0,151.0,152.0,11.8,1504.7,271.8,-0.8,0.9,2485.585,13.28,760.0,0.429,82.6
2023-11-21T14:24:13,2420,42.8014,5.9826,0.353,0.047,3.964,155.0,151.0,152.0,11.8,1504.7,271.9,-0.8,0.8,2485.852,13.28,761.0,0.356,82.4
2023-11-21T14:27:14,2420,42.8014,5.9826,0.519,0.043,3.828,155.0,152.0,152.0,11.8,1504.7,271.9,-0.9,0.9,2485.715,13.28,766.0,0.521,85.3
2023-11-21T14:30:14,2420,42.8014,5.9826,0.398,0.069,3.935,155.0,151.0,152.0,11.7,1504.7,271.9,-0.8,0.9,2485.723,13.28,769.0,0.404,80.2
2023-11-21T14:33:13,2420,42.8014,5.9826,0.453,0.033,3.862,155.0,151.0,152.0,11.8,1504.7,272.0,-0.8,0.9,2485.402,13.28,763.0,0.454,85.8
2023-11-21T14:36:13,2420,42.8014,5.9826,0.467,0.049,3.831,155.0,152.0,152.0,11.8,1504.7,271.8,-0.9,0.9,2485.514,13.28,775.0,0.47,84.0
2023-11-21T14:39:13,2420,42.8014,5.9826,0.673,0.048,3.618,155.0,151.0,152.0,11.8,1504.7,271.9,-0.8,0.9,2485.711,13.28,759.0,0.675,85.9
2023-11-21T14:42:13,2420,42.8014,5.9826,0.185,0.29,3.74,155.0,151.0,152.0,11.8,1504.7,271.9,-0.8,0.9,2485.717,13.28,766.0,0.344,32.5
2023-11-21T14:45:13,2420,42.8014,5.9826,0.446,0.049,3.876,155.0,151.0,152.0,11.8,1504.7,271.9,-0.8,0.9,2485.864,13.28,774.0,0.449,83.7
2023-11-21T14:48:13,2420,42.8014,5.9826,0.335,0.046,3.986,155.0,151.0,152.0,11.8,1504.7,271.9,-0.9,0.9,2485.805,13.28,762.0,0.338,82.2
2023-11-21T14:51:14,2420,42.8014,5.9826,0.39,0.049,3.931,155.0,151.0,152.0,11.8,1504.7,271.8,-0.8,0.9,2485.356,13.28,781.0,0.393,82.8
2023-11-21T14:54:13,2420,42.8014,5.9826,0.543,0.024,3.762,155.0,152.0,152.0,11.8,1504.7,271.9,-0.9,0.9,2485.9,13.28,786.0,0.543,87.5
2023-11-21T14:57:13,2420,42.8014,5.9826,0.544,0.042,3.787,155.0,151.0,152.0,11.8,1504.7,272.0,-0.8,0.9,2485.322,13.28,777.0,0.546,85.6
2023-11-21T15:03:13,2420,42.8014,5.9826,0.43,0.047,3.866,155.0,151.0,152.0,11.8,1504.7,271.8,-0.9,0.8,2485.876,13.28,774.0,0.433,83.8
2023-11-21T15:06:13,2420,42.8014,5.9826,0.521,0.066,3.769,155.0,151.0,152.0,11.8,1504.7,271.8,-0.8,0.9,2486.038,13.28,765.0,0.525,82.8
2023-11-21T15:09:13,2420,42.8014,5.9826,0.652,0.036,3.607,155.0,151.0,152.0,11.8,1504.7,271.9,-0.8,0.9,2485.783,13.28,776.0,0.653,86.8
2023-11-21T15:12:13,2420,42.8014,5.9826,0.487,0.07,3.757,155.0,151.0,152.0,11.8,1504.7,271.8,-0.8,0.9,2485.448,13.28,762.0,0.492,81.8
2023-11-21T15:15:13,2420,42.8014,5.9826,0.554,0.04,3.744,155.0,152.0,152.0,11.8,1504.7,271.9,-0.9,0.9,2485.755,13.28,767.0,0.555,85.9
2023-11-21T15:18:13,2420,42.8014,5.9826,0.378,0.055,3.91,155.0,151.0,152.0,11.8,1504.7,271.8,-0.8,0.9,2485.679,13.28,772.0,0.382,81.7
2023-11-21T15:21:14,2420,42.8014,5.9826,0.344,0.065,3.917,155.0,151.0,152.0,11.8,1504.7,271.9,-0.8,0.9,2485.603,13.28,761.0,0.35,79.3
2023-11-21T15:24:14,2420,42.8014,5.9826,0.499,0.05,3.793,155.0,151.0,152.0,11.8,1504.7,271.9,-0.8,0.8,2485.595,13.28,761.0,0.501,84.3
2023-11-21T15:27:13,2420,42.8014,5.9826,0.477,0.054,3.8,155.0,151.0,152.0,11.8,1504.7,271.8,-0.8,0.9,2485.263,13.28,769.0,0.48,83.5
2023-11-21T15:30:13,2420,42.8014,5.9826,0.436,0.045,3.828,155.0,152.0,152.0,11.8,1504.7,272.1,-0.8,0.9,2485.715,13.28,777.0,0.438,84.1
2023-11-21T15:33:13,2420,42.8014,5.9826,0.47,0.038,3.786,155.0,151.0,152.0,11.7,1504.7,271.9,-0.9,0.9,2485.745,13.28,780.0,0.472,85.4
2023-11-21T15:36:13,2420,42.8014,5.9826,0.437,0.049,3.838,155.0,152.0,152.0,11.8,1504.7,271.9,-0.8,0.9,2485.384,13.28,766.0,0.44,83.6
2023-11-21T15:39:13,2420,42.8014,5.9826,0.497,0.049,3.72,155.0,152.0,152.0,11.8,1504.7,271.9,-0.8,0.9,2485.46,13.28,765.0,0.499,84.4
2023-11-21T15:42:13,2420,42.8014,5.9826,0.245,0.045,4.0,155.0,151.0,152.0,11.8,1504.7,271.9,-0.8,0.9,2485.669,13.28,765.0,0.249,79.6
2023-11-21T15:45:13,2420,42.8014,5.9826,0.667,0.019,3.595,155.0,151.0,152.0,11.8,1504.7,271.8,-0.8,0.9,2485.914,13.28,775.0,0.667,88.4
2023-11-21T15:48:13,2420,42.8014,5.9826,0.342,0.053,3.961,155.0,152.0,152.0,11.7,1504.7,271.9,-0.8,0.9,2485.864,13.28,757.0,0.346,81.2
2023-11-21T15:51:13,2420,42.8014,5.9826,0.538,0.045,3.717,155.0,151.0,152.0,11.8,1504.7,272.0,-0.8,0.9,2485.249,13.28,772.0,0.54,85.2
2023-11-21T15:54:14,2420,42.8014,5.9826,0.406,0.049,3.867,155.0,151.0,152.0,11.8,1504.7,271.8,-0.8,0.9,2485.38,13.28,787.0,0.409,83.1
2023-11-21T15:57:14,2420,42.8014,5.9826,0.465,0.039,3.81,155.0,151.0,152.0,11.8,1504.7,271.8,-0.8,0.9,2486.046,13.28,764.0,0.467,85.2
2023-11-21T16:03:13,2420,42.8014,5.9826,0.324,0.067,3.953,155.0,151.0,152.0,11.8,1504.7,271.9,-0.8,0.8,2485.378,13.28,781.0,0.331,78.3
2023-11-21T16:06:13,2420,42.8014,5.9826,0.326,0.067,3.973,155.0,151.0,152.0,11.8,1504.7,271.8,-0.9,0.9,2485.394,13.28,767.0,0.333,78.4
2023-11-21T16:09:13,2420,42.8014,5.9826,0.622,0.047,3.643,155.0,151.0,152.0,11.7,1504.7,271.8,-0.8,0.9,2485.43,13.28,774.0,0.624,85.7
2023-11-21T16:12:13,2420,42.8014,5.9826,0.468,0.045,3.773,155.0,151.0,152.0,11.8,1504.7,272.0,-0.8,0.9,2485.952,13.28,779.0,0.47,84.5
2023-11-21T16:15:13,2420,42.8014,5.9826,0.793,0.034,3.507,155.0,151.0,152.0,11.8,1504.7,271.8,-0.8,0.9,2485.958,13.28,777.0,0.794,87.6
2023-11-21T16:18:14,2420,42.8014,5.9826,0.332,0.039,3.974,155.0,152.0,152.0,11.8,1504.7,271.9,-0.8,0.9,2485.556,13.28,763.0,0.334,83.3
2023-11-21T16:21:13,2420,42.8014,5.9826,0.479,0.051,3.835,155.0,151.0,152.0,11.8,1504.7,271.8,-0.8,0.9,2485.482,13.28,769.0,0.482,83.9
2023-11-21T16:24:13,2420,42.8014,5.9826,0.505,0.043,3.768,155.0,151.0,152.0,11.7,1504.7,271.9,-0.8,0.9,2485.394,13.28,767.0,0.507,85.1
2023-11-21T16:27:13,2420,42.8014,5.9826,0.415,0.044,3.9,155.0,151.0,152.0,11.8,1504.7,272.0,-0.8,0.9,2485.687,13.28,781.0,0.417,83.9
2023-11-21T16:30:13,2420,42.8014,5.9826,0.386,0.049,3.915,155.0,151.0,152.0,11.8,1504.7,271.9,-0.8,0.8,2485.552,13.28,773.0,0.389,82.8
2023-11-21T16:33:13,2420,42.8014,5.9826,0.49,0.053,3.791,155.0,151.0,152.0,11.8,1504.7,271.9,-0.8,0.9,2485.38,13.28,772.0,0.493,83.8
2023-11-21T16:36:13,2420,42.8014,5.9826,0.456,0.029,3.848,155.0,151.0,152.0,11.8,1504.7,271.9,-0.8,0.9,2485.524,13.28,766.0,0.457,86.4
2023-11-21T16:39:13,2420,42.8014,5.9826,0.309,0.053,3.996,155.0,151.0,152.0,11.8,1504.7,271.9,-0.8,0.9,2485.476,13.28,762.0,0.313,80.3
2023-11-21T16:42:13,2420,42.8014,5.9826,0.54,0.034,3.743,155.0,151.0,152.0,11.8,1504.7,271.8,-0.8,0.9,2485.326,13.28,776.0,0.541,86.4
2023-11-21T16:45:13,2420,42.8014,5.9826,0.382,0.069,3.865,155.0,151.0,152.0,11.8,1504.7,271.9,-0.8,0.9,2485.735,13.28,757.0,0.388,79.8
2023-11-21T16:48:14,2420,42.8014,5.9826,0.558,0.053,3.741,155.0,151.0,152.0,11.8,1504.7,271.9,-0.8,0.9,2485.916,13.28,781.0,0.56,84.6
2023-11-21T16:51:14,2420,42.8014,5.9826,0.544,0.04,3.753,155.0,152.0,152.0,11.8,1504.7,271.8,-0.8,0.8,2485.595,13.28,768.0,0.545,85.8
2023-11-21T16:54:13,2420,42.8014,5.9826,0.543,0.033,3.797,155.0,151.0,152.0,11.8,1504.7,271.8,-0.9,0.9,2485.376,13.28,782.0,0.544,86.5
2023-11-21T16:57:13,2420,42.8014,5.9826,0.377,0.027,3.936,155.0,151.0,152.0,11.8,1504.7,271.9,-0.8,0.9,2485.532,13.28,772.0,0.378,85.9
2023-11-21T17:03:13,2420,42.8014,5.9826,0.477,0.052,3.867,155.0,151.0,152.0,11.8,1504.7,271.9,-0.9,0.9,2485.506,13.28,766.0,0.48,83.8
2023-11-21T17:06:13,2420,42.8014,5.9826,0.488,0.039,3.809,155.0,152.0,152.0,11.8,1504.7,271.8,-0.8,0.9,2485.496,13.28,773.0,0.49,85.4
2023-11-21T17:09:13,2420,42.8014,5.9826,0.461,0.058,3.846,155.0,151.0,152.0,11.8,1504.7,271.8,-0.9,0.9,2485.398,13.28,769.0,0.465,82.8
2023-11-21T17:12:13,2420,42.8014,5.9826,0.348,0.059,3.943,155.0,152.0,152.0,11.8,1504.7,271.8,-0.9,0.9,2485.779,13.28,767.0,0.353,80.4
2023-11-21T17:15:13,2420,42.8014,5.9826,0.276,0.085,3.982,155.0,151.0,152.0,11.8,1504.7,271.9,-0.9,0.9,2485.777,13.28,776.0,0.289,72.9
2023-11-21T17:18:13,2420,42.8014,5.9826,0.527,0.038,3.75,155.0,151.0,152.0,11.8,1504.7,271.8,-0.8,0.9,2485.301,13.28,774.0,0.528,85.9
2023-11-21T17:21:13,2420,42.8014,5.9826,0.452,0.047,3.857,155.0,152.0,152.0,11.8,1504.7,271.8,-0.8,0.9,2485.506,13.28,788.0,0.454,84.1
2023-11-21T17:24:13,2420,42.8014,5.9826,0.457,0.032,3.799,155.0,152.0,152.0,11.8,1504.7,271.9,-0.8,0.9,2485.655,13.28,772.0,0.458,86.0
2023-11-21T17:27:13,2420,42.8014,5.9826,0.674,0.036,3.643,155.0,152.0,152.0,11.8,1504.7,271.8,-0.9,0.9,2485.717,13.28,782.0,0.675,86.9
2023-11-21T17:30:14,2420,42.8014,5.9826,0.358,0.048,3.91,155.0,151.0,152.0,11.8,1504.7,271.9,-0.8,0.9,2485.486,13.28,764.0,0.361,82.4
2023-11-21T17:33:13,2420,42.8014,5.9826,0.563,0.054,3.739,155.0,151.0,152.0,11.8,1504.7,271.8,-0.8,0.9,2485.55,13.28,766.0,0.565,84.5
2023-11-21T17:36:13,2420,42.8014,5.9826,0.766,0.029,3.517,155.0,152.0,152.0,11.8,1504.7,271.9,-0.8,0.9,2485.462,13.28,774.0,0.767,87.8